Date,TemperatureHighF,TemperatureAvgF,TemperatureLowF,DewpointHighF,DewpointAvgF,DewpointLowF,HumidityHigh,HumidityAvg,HumidityLow,PressureMaxIn,PressureMinIn,WindSpeedMaxMPH,WindSpeedAvgMPH,GustSpeedMaxMPH,PrecipitationSumIn
2014-1-1,15.9,13.9,12.1,13.0,9.5,4.4,89,82,68,30.45,30.29,5,2,17,0.00
2014-1-2,15.7,12.2,2.8,12.9,8.6,-2.0,89,85,79,30.32,30.13,7,4,15,0.00
2014-1-3,15.1,4.3,-3.1,5.2,-1.4,-6.5,86,77,60,30.49,30.21,17,4,24,0.00
2014-1-4,30.4,22.5,11.9,25.9,14.8,3.4,94,73,60,30.21,29.94,19,13,26,0.00
2014-1-5,31.6,28.0,19.7,30.3,26.7,18.0,96,95,93,30.09,29.56,8,2,20,0.00
2014-1-6,19.7,4.1,-14.4,17.9,-0.2,-19.7,93,82,68,30.13,29.57,23,14,35,0.00
2014-1-7,4.1,-5.1,-14.3,-3.7,-10.9,-19.2,79,75,68,30.41,30.13,21,13,27,0.00
2014-1-8,18.0,7.0,-2.5,9.5,2.0,-5.9,90,80,66,30.56,30.40,12,3,18,0.00
2014-1-9,19.8,3.1,-6.9,12.8,-0.4,-10.7,91,85,72,30.67,30.53,7,1,10,0.00
2014-1-10,38.5,33.7,27.4,38.0,32.9,26.2,98,97,95,30.25,29.72,9,6,15,0.35
2014-1-11,42.2,38.2,33.4,41.7,36.9,29.0,98,95,83,29.72,29.31,18,10,29,0.13
2014-1-12,38.3,34.2,32.2,32.7,29.2,27.1,88,82,72,29.95,29.64,15,10,25,0.00
2014-1-13,43.0,40.0,37.4,35.9,33.5,32.4,83,78,74,29.78,29.57,17,13,23,0.00
2014-1-14,38.9,32.9,27.7,32.5,27.8,22.1,93,82,61,29.82,29.71,21,9,31,0.00
2014-1-15,31.1,24.6,19.9,23.0,17.7,14.2,85,75,67,30.03,29.72,23,12,38,0.00
2014-1-16,27.3,23.3,19.4,25.6,19.2,13.0,94,84,75,29.98,29.67,18,12,22,0.00
2014-1-17,33.0,26.6,18.3,27.0,22.6,13.1,94,85,69,29.93,29.66,16,8,19,0.00
2014-1-18,18.9,16.4,10.9,14.4,12.3,7.8,87,84,81,29.99,29.86,11,6,15,0.00
2014-1-19,30.2,22.8,11.8,24.5,18.5,9.4,92,84,71,29.86,29.57,26,12,37,0.00
2014-1-20,29.8,22.8,10.4,28.0,18.0,4.3,93,82,62,30.10,29.54,11,4,21,0.00
2014-1-21,15.4,6.3,-1.1,4.7,-0.7,-5.0,84,73,55,30.26,30.10,5,2,12,0.00
2014-1-22,10.4,4.5,-4.4,7.0,0.1,-7.8,87,82,68,30.25,30.02,13,5,18,0.00
2014-1-23,16.5,8.3,3.3,9.4,4.2,-1.2,89,83,70,30.52,30.02,7,2,11,0.00
2014-1-24,16.6,6.8,1.5,13.1,2.1,-5.0,88,81,68,30.50,29.58,24,14,33,0.00
2014-1-25,25.6,20.8,16.5,22.9,16.7,6.9,91,84,60,29.58,29.34,21,12,29,0.00
2014-1-29,13.4,11.7,9.5,3.0,2.2,1.5,72,65,60,30.26,30.22,12,8,15,0.00
2014-1-30,26.8,18.4,9.4,24.0,10.3,2.2,90,71,57,30.22,29.84,20,14,27,0.00
2014-1-31,32.0,28.0,25.3,25.6,23.4,19.3,89,83,74,30.17,29.88,14,4,25,0.00
2014-2-1,33.9,28.8,25.2,32.9,26.8,20.4,96,92,77,30.17,29.83,9,1,12,0.00
2014-2-2,26.1,22.6,17.5,20.4,17.4,13.7,91,81,70,30.31,30.14,6,2,11,0.00
2014-2-3,30.5,11.8,0.9,17.1,7.8,-2.8,91,85,50,30.44,30.28,2,0,5,0.00
2014-2-4,27.7,14.7,2.3,23.4,9.6,-1.0,91,81,58,30.52,30.21,5,1,8,0.00
2014-2-5,26.2,18.1,6.5,23.7,14.9,3.2,92,87,74,30.39,29.96,6,3,17,0.00
2014-2-6,19.8,10.7,-1.1,14.1,6.0,-4.5,89,81,70,30.41,30.29,17,7,26,0.00
2014-2-7,14.5,7.7,2.5,5.1,1.1,-3.1,83,74,62,30.38,30.32,19,11,26,0.00
2014-2-8,19.6,11.7,-0.5,12.1,6.5,-5.3,88,79,65,30.39,30.23,9,5,17,0.00
2014-2-9,23.5,16.7,10.1,15.1,11.9,7.0,90,82,65,30.23,30.06,7,2,13,0.00
2014-2-10,21.3,15.7,10.1,13.4,10.1,5.5,90,79,58,30.42,30.19,10,4,15,0.00
2014-2-11,24.7,12.4,4.2,7.0,4.2,0.9,89,70,42,30.56,30.41,5,2,9,0.00
2014-2-12,24.2,12.7,0.4,12.5,5.7,-3.0,90,75,53,30.52,30.15,8,2,11,0.00
2014-2-13,32.8,23.0,14.3,16.6,12.8,9.7,84,66,42,30.15,29.56,8,3,13,0.00
2014-2-14,28.3,24.2,20.9,24.7,18.8,14.0,91,80,69,29.82,29.48,14,5,19,0.00
2014-2-15,23.5,14.5,5.2,18.7,7.4,0.9,84,74,53,30.12,29.82,8,3,12,0.00
2014-2-16,28.7,17.1,2.3,20.7,12.7,-1.2,90,83,69,30.43,30.01,5,1,11,0.00
2014-2-17,22.2,11.8,-1.4,20.5,6.6,-5.3,93,80,55,30.46,29.68,16,5,23,0.00
2014-2-18,35.4,27.4,18.7,30.1,22.3,15.0,93,81,66,30.05,29.67,15,9,23,0.00
2014-2-19,45.6,36.8,23.6,34.1,29.4,20.9,94,75,53,30.06,29.62,13,5,17,0.01
2014-2-20,41.7,33.4,29.2,41.2,31.7,26.3,98,93,84,30.08,29.44,16,6,26,0.36
2014-2-21,44.6,36.5,30.5,44.1,29.9,15.9,98,78,54,29.76,29.41,31,20,40,0.00
2014-2-22,36.6,32.9,28.7,29.6,16.8,6.9,84,53,35,30.00,29.75,28,16,39,0.00
2014-2-23,31.4,24.8,20.6,17.9,14.0,9.4,79,64,49,30.09,29.99,18,10,27,0.00
2014-2-24,22.2,19.3,15.1,15.3,11.5,7.4,86,71,62,30.21,30.07,16,8,27,0.00
2014-2-25,22.9,17.1,10.7,14.3,8.9,4.9,80,70,61,30.20,30.04,17,8,25,0.00
2014-2-26,14.8,10.1,3.8,5.2,1.4,-2.2,83,68,55,30.16,29.68,19,10,26,0.00
2014-2-27,13.7,8.4,0.1,9.3,-2.5,-11.4,87,62,39,30.28,29.57,14,7,23,0.00
2014-2-28,17.8,7.7,-6.1,10.1,-1.4,-9.9,85,67,46,30.42,30.17,13,5,19,0.00
2014-3-1,27.2,21.1,15.7,23.4,16.7,10.0,90,83,75,30.32,30.13,4,2,11,0.00
2014-3-2,24.4,13.3,1.1,13.8,5.6,-2.9,89,73,46,30.41,30.30,5,2,13,0.00
2014-3-3,21.3,8.8,-2.3,3.5,-2.8,-7.7,78,60,37,30.54,30.40,7,1,9,0.00
2014-3-4,19.3,12.3,0.8,6.3,0.6,-4.7,80,60,43,30.47,30.29,9,2,11,0.00
2014-3-5,26.0,19.0,11.2,15.1,10.7,4.6,87,70,54,30.58,30.31,12,2,12,0.00
2014-3-6,28.9,19.3,10.3,13.3,8.7,4.5,87,64,48,30.58,30.22,23,5,26,0.00
2014-3-7,45.3,30.1,9.6,29.3,20.5,7.0,91,69,47,30.22,29.94,11,4,14,0.01
2014-3-8,39.8,31.1,17.8,32.2,24.2,14.4,90,76,59,30.19,29.94,8,2,12,0.01
2014-3-9,34.6,25.7,14.0,27.8,18.6,10.6,92,75,55,30.27,29.86,18,8,23,0.00
2014-3-10,49.6,40.8,33.1,36.4,33.3,27.6,82,75,58,29.86,29.57,15,9,22,0.00
2014-3-11,42.3,41.2,37.5,37.8,36.4,34.6,92,83,78,29.75,29.64,6,3,22,0.09
2014-3-12,36.9,24.2,7.8,34.0,21.7,4.0,96,90,81,30.04,29.59,7,4,17,0.01
2014-3-13,23.5,14.3,2.4,13.0,5.1,-1.1,85,68,43,30.21,30.04,14,6,19,0.00
2014-3-14,49.1,36.1,21.0,36.0,26.7,12.7,84,69,56,30.04,29.58,24,13,36,0.01
2014-3-15,40.2,35.0,24.7,32.6,24.5,14.2,82,66,47,30.30,29.71,16,7,36,0.00
2014-3-16,24.3,17.7,10.4,12.8,6.8,1.3,77,63,42,30.47,30.28,7,3,18,0.00
2014-3-17,33.1,19.8,8.3,15.9,7.2,2.4,83,60,32,30.27,30.00,11,4,16,0.00
2014-3-18,45.3,33.8,23.8,31.8,25.1,15.9,84,71,57,30.08,29.91,12,5,15,0.00
2014-3-19,45.0,39.8,34.7,43.7,36.6,29.5,96,88,77,29.93,29.61,21,11,27,0.08
2014-3-20,36.1,34.3,30.7,33.2,27.0,21.8,90,75,61,30.07,29.80,16,9,27,0.00
2014-3-21,42.5,33.1,21.9,29.5,24.3,19.8,93,71,48,30.13,29.73,12,4,18,0.03
2014-3-22,39.3,34.8,24.9,37.3,28.9,16.8,96,80,62,30.25,29.69,10,5,17,0.06
2014-3-23,24.9,19.2,13.3,17.1,8.7,4.4,72,63,52,30.39,30.25,6,3,16,0.00
2014-3-24,29.0,22.6,13.5,17.0,11.5,6.6,80,63,44,30.39,30.14,15,5,18,0.00
2014-3-25,30.6,24.0,19.0,22.6,15.6,6.3,85,70,51,30.20,29.96,13,6,23,0.00
2014-3-26,30.6,21.2,10.4,17.6,9.3,5.0,85,62,42,30.39,30.20,11,4,18,0.00
2014-3-27,40.4,33.8,26.1,35.8,26.8,17.6,89,76,65,30.25,29.71,21,9,27,0.02
2014-3-28,48.7,43.5,37.8,45.0,38.2,31.5,89,82,71,30.21,29.58,23,11,27,0.01
2014-3-29,37.8,34.7,31.8,32.6,29.6,27.3,87,82,75,30.22,30.10,6,3,14,0.00
2014-3-30,53.0,38.0,26.2,27.5,23.8,20.4,88,60,29,30.24,30.13,5,2,11,0.00
2014-3-31,56.9,43.1,28.1,30.8,26.7,20.4,92,57,31,30.24,30.02,11,4,15,0.00
2014-4-1,56.4,43.8,37.6,42.5,32.2,22.4,70,64,45,30.03,29.71,23,9,30,0.00
2014-4-2,57.0,41.4,32.0,32.0,27.1,24.7,76,59,30,30.22,30.02,11,3,18,0.00
2014-4-3,39.9,35.9,33.6,34.2,26.7,20.9,88,69,57,30.22,29.87,9,4,23,0.14
2014-4-4,39.9,37.1,35.5,39.1,35.3,31.7,97,94,83,29.72,29.46,20,9,33,0.18
2014-4-5,49.0,37.5,30.7,31.6,25.7,22.2,83,64,35,30.21,29.72,18,7,33,0.00
2014-4-6,55.3,41.5,26.7,29.3,24.2,13.1,92,56,22,30.25,30.06,8,2,12,0.00
2014-4-7,52.7,42.9,32.4,40.5,31.1,24.8,94,65,41,30.06,29.50,5,1,9,0.30
2014-4-8,60.5,47.6,36.7,39.1,34.4,26.5,95,64,30,29.82,29.48,7,3,12,0.16
2014-4-9,54.9,45.8,35.4,38.6,28.9,19.3,81,54,26,30.01,29.82,9,4,15,0.00
2014-4-10,63.4,52.6,44.3,44.7,39.1,33.0,75,61,48,29.93,29.66,24,11,32,0.00
2014-4-11,64.5,51.7,36.3,37.8,31.3,20.9,91,52,21,30.04,29.90,13,2,18,0.00
2014-4-12,67.7,55.5,41.4,50.1,39.2,33.4,89,57,33,30.11,29.78,13,4,19,0.06
2014-4-13,70.8,61.4,49.0,60.1,52.7,45.3,91,74,61,29.91,29.61,17,8,28,0.11
2014-4-14,69.3,56.3,31.1,55.2,45.5,29.6,94,69,50,29.79,29.38,36,14,45,0.04
2014-4-15,32.5,28.2,24.4,29.5,20.9,13.6,95,75,50,30.28,29.77,10,6,19,0.00
2014-4-16,40.7,33.1,24.9,26.1,18.4,12.0,78,56,34,30.51,30.28,14,5,19,0.07
2014-4-17,62.4,47.1,32.4,39.5,31.3,21.9,83,57,36,30.42,30.24,15,7,20,0.00
2014-4-18,63.0,52.0,38.5,48.8,42.1,31.6,92,71,44,30.36,30.23,6,2,14,0.04
2014-4-19,57.3,44.9,33.0,35.1,31.1,26.0,86,62,32,30.49,30.35,10,3,13,0.00
2014-4-20,70.5,54.5,40.1,40.1,33.3,28.0,74,49,21,30.39,30.11,9,4,13,0.00
2014-4-21,73.8,62.1,49.4,54.0,42.0,35.1,85,49,32,30.11,29.74,14,4,19,0.00
2014-4-22,58.4,49.5,40.0,56.1,42.1,31.8,95,76,59,29.93,29.65,12,7,18,0.06
2014-4-23,56.2,44.4,36.6,33.2,28.3,15.7,80,57,22,30.15,29.93,7,3,16,0.00
2014-4-24,54.8,46.2,37.4,27.0,19.7,12.6,55,36,24,30.21,29.88,14,6,19,0.00
2014-4-25,52.7,46.1,43.8,44.7,36.3,24.9,92,70,42,29.89,29.67,11,4,16,0.29
2014-4-26,53.9,46.8,38.5,43.3,37.3,32.7,91,70,48,30.14,29.78,9,4,17,0.00
2014-4-27,54.9,44.6,34.9,36.7,32.8,29.6,83,65,45,30.23,30.12,11,4,15,0.00
2014-4-28,53.8,48.9,43.5,39.0,34.9,30.3,71,59,44,30.13,29.82,15,8,26,0.01
2014-4-29,72.9,57.1,46.5,61.2,49.7,36.2,98,79,39,29.83,29.58,29,8,31,0.84
2014-4-30,64.9,55.8,52.4,54.7,52.1,50.4,97,88,65,29.84,29.72,15,6,21,0.14
2014-5-1,53.6,48.7,45.1,52.8,41.9,37.4,97,78,59,29.78,29.73,19,12,25,0.02
2014-5-2,51.0,47.0,44.7,46.4,44.4,42.3,93,91,79,29.81,29.72,15,10,22,0.05
2014-5-3,58.1,50.8,46.2,46.8,43.2,37.2,94,77,50,29.83,29.63,21,10,29,0.10
2014-5-4,57.0,50.3,44.4,42.1,36.1,29.0,84,60,37,30.09,29.82,14,3,21,0.00
2014-5-5,57.6,48.2,40.0,40.3,37.2,33.5,82,67,42,30.11,29.98,7,2,9,0.00
2014-5-6,62.0,50.8,39.4,40.0,37.3,32.7,92,63,39,30.13,30.02,6,3,11,0.00
2014-5-7,57.8,50.0,43.9,49.2,42.4,32.8,90,75,60,30.16,29.97,16,5,23,0.59
2014-5-8,83.1,65.8,49.8,64.7,56.0,47.8,93,73,53,30.03,29.86,12,6,15,0.00
2014-5-9,75.7,69.4,63.2,61.6,58.8,53.5,79,69,57,29.89,29.64,25,11,34,0.00
2014-5-10,69.2,61.1,53.5,57.0,44.5,36.7,83,56,31,29.98,29.76,16,7,24,0.00
2014-5-11,76.4,64.5,48.8,56.1,47.9,40.4,90,58,33,30.08,29.96,12,4,16,0.00
2014-5-12,69.4,64.8,60.1,65.2,61.1,52.7,99,88,62,30.02,29.92,9,4,12,0.41
2014-5-13,81.5,68.8,62.8,69.2,65.5,59.2,99,90,61,30.02,29.84,22,7,29,0.20
2014-5-14,62.6,56.4,48.7,59.0,52.8,45.3,94,88,81,30.12,29.96,7,2,11,0.23
2014-5-15,57.7,50.0,44.0,57.4,48.0,37.9,99,93,79,29.99,29.69,16,6,22,0.67
2014-5-16,55.5,45.2,36.2,39.4,36.7,33.8,92,73,52,30.05,29.97,7,2,16,0.00
2014-5-17,54.6,48.2,42.8,41.1,37.0,30.6,82,66,44,30.20,30.03,10,2,16,0.00
2014-5-18,64.7,55.1,45.1,43.5,38.6,34.1,79,56,33,30.27,30.20,11,7,14,0.00
2014-5-19,69.6,60.6,49.9,44.4,39.7,34.9,73,48,29,30.30,30.14,9,5,15,0.00
2014-5-20,72.6,60.0,54.2,55.4,47.6,40.0,80,64,47,30.22,29.91,13,7,18,0.03
2014-5-21,82.1,74.8,69.6,59.6,55.7,53.0,68,52,38,29.82,29.77,7,3,15,0.02
2014-5-22,70.2,63.6,55.4,57.4,50.9,43.8,87,64,48,30.05,29.81,7,3,15,0.00
2014-5-23,69.6,59.1,48.9,52.8,47.3,42.1,81,66,51,30.16,30.03,6,3,12,0.00
2014-5-24,78.0,65.8,51.9,54.8,49.4,44.5,94,60,32,30.21,30.11,4,1,9,0.00
2014-5-25,79.7,70.0,55.5,58.9,52.8,45.3,91,58,33,30.16,30.03,9,3,10,0.00
2014-5-26,82.0,73.6,64.0,65.4,57.2,51.3,77,58,39,30.06,29.90,11,5,14,0.00
2014-5-27,78.5,71.1,68.4,70.6,66.2,63.0,99,85,69,29.92,29.83,8,3,12,1.26
2014-5-28,69.8,63.9,58.0,68.5,60.0,53.5,99,88,67,30.10,29.88,4,1,5,1.34
2014-5-29,76.9,64.6,52.2,57.6,53.1,50.5,94,69,42,30.17,30.07,4,2,8,0.00
2014-5-30,83.9,69.0,53.7,58.3,53.7,50.2,91,61,37,30.21,30.11,6,1,12,0.00
2014-5-31,78.6,69.7,60.2,57.0,52.0,43.3,74,55,39,30.24,30.16,10,3,13,0.00
2014-6-1,82.6,71.1,58.0,60.4,52.5,43.0,74,53,33,30.20,29.98,11,5,14,0.00
2014-6-2,81.4,73.2,67.6,69.6,65.5,56.7,94,77,64,30.00,29.80,21,10,30,0.14
2014-6-3,76.4,71.7,64.1,68.8,60.2,49.1,95,70,43,29.90,29.78,19,9,30,0.01
2014-6-4,67.8,63.2,58.6,61.1,56.7,52.9,96,80,66,29.91,29.81,8,1,8,0.11
2014-6-5,76.9,64.6,53.8,53.7,46.5,43.1,81,54,31,29.97,29.85,6,2,12,0.00
2014-6-6,80.8,66.7,52.9,57.6,49.5,43.5,84,57,31,30.02,29.95,7,2,9,0.00
2014-6-7,83.0,72.4,59.9,58.6,51.7,38.0,89,52,26,30.05,29.88,7,3,11,0.00
2014-6-8,79.4,69.0,61.6,61.8,55.0,48.9,91,63,35,29.98,29.80,5,2,8,0.10
2014-6-9,82.9,69.5,56.9,60.0,54.4,48.3,94,63,32,30.01,29.91,6,2,9,0.00
2014-6-10,72.2,64.3,59.0,57.5,52.4,49.6,78,66,52,29.96,29.87,4,1,10,0.00
2014-6-11,74.6,68.1,61.3,68.6,64.0,51.9,98,87,60,29.87,29.69,14,4,17,0.69
2014-6-12,76.1,70.2,66.7,68.3,66.2,64.0,97,88,69,29.75,29.68,9,4,13,0.32
2014-6-13,70.8,62.2,53.3,65.4,53.1,46.6,89,73,58,30.01,29.72,10,4,18,0.00
2014-6-14,77.0,61.2,48.7,55.2,48.5,45.3,91,66,37,30.15,30.01,6,2,11,0.00
2014-6-15,79.6,67.6,55.3,57.3,53.0,46.5,91,63,37,30.15,29.94,17,6,24,0.00
2014-6-16,85.9,76.3,66.7,68.0,63.0,57.2,86,65,42,30.03,29.96,8,4,24,0.00
2014-6-17,86.2,78.0,69.1,71.9,66.9,61.0,92,70,46,29.98,29.78,20,8,30,0.00
2014-6-18,80.1,70.0,64.8,70.7,66.0,63.3,97,88,67,30.06,29.89,12,2,21,0.67
2014-6-19,76.4,67.8,64.5,66.5,64.9,63.4,97,91,70,30.14,29.98,4,2,8,0.01
2014-6-20,63.4,58.3,56.2,57.5,55.2,54.3,95,90,75,29.99,29.97,7,4,13,0.18
2014-6-21,79.9,69.2,57.3,61.2,54.9,46.5,96,65,36,30.00,29.89,4,1,13,0.00
2014-6-22,81.1,72.6,65.8,61.0,56.6,52.0,76,58,41,29.95,29.88,8,4,11,0.00
2014-6-23,77.2,71.3,63.1,71.7,63.8,51.5,89,78,55,29.93,29.84,7,3,10,0.06
2014-6-24,77.4,72.2,69.0,71.8,68.2,65.9,95,87,72,29.88,29.83,11,4,15,0.13
2014-6-25,78.8,70.7,65.2,67.7,65.7,62.2,98,85,64,29.99,29.86,3,1,7,0.00
2014-6-26,81.9,70.9,58.4,64.6,60.7,53.8,92,72,52,30.06,29.99,3,1,8,0.00
2014-6-27,84.7,73.6,60.4,64.6,57.9,49.4,84,59,45,30.12,30.05,6,2,11,0.00
2014-6-28,86.3,76.6,65.5,71.3,66.7,61.5,94,73,47,30.12,30.01,13,4,17,0.00
2014-6-29,84.6,78.2,72.4,73.3,70.1,66.0,92,77,58,30.03,29.90,14,8,20,0.05
2014-6-30,84.1,78.9,73.7,74.4,71.6,69.4,91,79,66,29.92,29.71,14,9,19,0.00
2014-7-1,80.0,77.2,69.7,72.6,68.6,63.5,95,75,64,29.73,29.63,17,7,35,0.20
2014-7-2,75.2,72.3,65.7,66.1,62.1,57.1,87,71,55,29.93,29.73,16,6,22,0.00
2014-7-3,73.3,64.6,54.7,61.7,57.1,49.9,95,78,54,30.13,29.90,8,2,17,0.17
2014-7-4,77.0,67.1,55.5,57.2,51.6,42.4,89,61,31,30.28,30.13,4,1,9,0.00
2014-7-5,75.5,69.1,59.0,58.4,53.5,47.4,79,59,39,30.28,30.07,11,5,15,0.00
2014-7-6,78.2,72.5,64.4,68.9,61.5,55.2,79,69,50,30.07,29.71,16,8,20,0.00
2014-7-7,82.7,74.8,69.0,71.3,67.7,62.0,96,80,50,29.72,29.61,18,8,19,0.55
2014-7-8,75.8,71.4,67.1,69.8,64.2,60.0,96,79,60,29.73,29.51,16,6,25,0.78
2014-7-9,76.0,67.8,61.3,61.2,57.9,54.9,93,72,53,30.01,29.73,5,2,10,0.00
2014-7-10,78.5,66.2,59.4,61.9,59.0,55.3,95,79,49,30.18,30.01,3,0,6,0.00
2014-7-11,79.2,70.4,57.9,61.3,57.9,54.3,93,66,47,30.24,30.13,8,2,11,0.00
2014-7-12,82.8,75.0,67.6,71.6,64.1,58.5,89,70,51,30.17,29.88,12,6,14,0.03
2014-7-13,82.9,76.2,70.9,72.1,66.6,59.6,94,74,48,29.88,29.75,14,6,18,0.05
2014-7-14,80.4,71.3,64.8,66.8,61.2,52.1,95,73,39,29.86,29.73,7,2,11,0.08
2014-7-15,68.9,64.6,60.2,63.6,56.9,51.0,92,77,55,29.87,29.68,13,5,19,0.01
2014-7-16,69.4,60.7,53.7,55.7,52.7,50.2,91,76,54,30.00,29.86,6,3,13,0.00
2014-7-17,75.1,66.5,55.3,58.0,53.7,49.9,91,65,44,30.14,30.00,8,3,12,0.00
2014-7-18,78.1,69.0,57.0,59.7,54.6,49.6,94,63,40,30.22,30.14,11,2,14,0.00
2014-7-19,75.8,68.1,63.8,64.5,61.0,51.7,90,78,59,30.14,30.01,6,1,8,0.00
2014-7-20,83.8,71.8,62.3,66.2,61.7,56.2,98,74,43,30.08,30.01,6,1,7,0.00
2014-7-21,86.8,75.9,66.7,65.7,62.2,58.7,92,65,42,30.12,30.05,8,3,10,0.00
2014-7-22,86.3,78.5,69.4,72.5,66.6,58.5,88,68,53,30.10,29.89,12,6,18,0.00
2014-7-23,81.2,71.0,61.5,72.1,62.1,53.6,88,74,59,30.07,29.83,7,3,12,0.02
2014-7-24,78.8,67.0,56.7,57.1,53.3,49.4,90,64,40,30.12,30.02,3,1,9,0.00
2014-7-25,75.3,68.0,59.0,59.7,55.7,51.5,86,65,49,30.08,29.93,10,4,14,0.00
2014-7-26,79.7,72.3,64.5,68.3,62.0,55.8,86,71,50,29.96,29.75,10,5,15,0.00
2014-7-27,84.2,72.8,67.2,69.1,67.3,65.4,95,84,58,29.77,29.53,10,2,24,0.16
2014-7-28,62.7,58.4,55.5,53.4,50.8,49.4,84,76,70,30.01,29.96,3,1,10,0.00
2014-7-29,70.0,60.5,52.6,60.7,54.2,49.2,97,81,64,30.00,29.94,11,2,14,0.71
2014-7-30,74.2,64.6,57.2,61.9,59.0,56.1,96,83,57,30.01,29.94,9,1,11,0.18
2014-7-31,76.8,67.0,55.6,66.5,58.6,52.6,92,76,57,30.04,29.97,13,4,17,0.01
2014-8-1,82.0,72.5,63.7,65.5,62.4,58.6,90,72,47,30.08,30.02,8,2,11,0.00
2014-8-2,81.2,69.5,64.1,69.0,64.2,61.8,96,84,58,30.12,30.06,5,1,8,0.16
2014-8-3,87.0,73.4,61.5,66.6,63.2,60.4,97,73,43,30.11,30.03,4,1,7,0.01
2014-8-4,85.6,73.2,65.6,69.0,64.8,60.4,93,76,50,30.07,30.00,8,2,11,0.01
2014-8-5,75.9,68.2,64.3,68.7,65.3,62.6,97,90,72,30.07,29.99,6,1,9,0.96
2014-8-6,78.7,65.2,59.5,63.8,60.8,58.2,98,87,51,30.06,29.99,2,0,6,0.01
2014-8-7,69.6,63.5,59.5,62.4,59.3,55.9,96,87,63,30.09,30.06,2,0,7,0.00
2014-8-8,81.7,70.5,61.4,62.4,57.3,52.7,86,65,40,30.16,30.09,5,1,9,0.00
2014-8-9,81.9,71.1,60.5,62.9,59.1,55.6,95,68,42,30.14,30.07,6,2,12,0.00
2014-8-10,79.0,67.8,63.7,67.2,62.1,59.6,87,82,67,30.11,29.99,5,1,7,0.00
2014-8-11,72.4,69.2,66.6,69.3,66.4,63.3,98,91,79,30.00,29.65,10,2,13,1.39
2014-8-12,73.5,66.0,62.4,67.2,63.9,59.4,98,93,77,29.82,29.65,9,4,11,0.24
2014-8-13,77.0,66.4,56.8,59.8,54.6,49.9,94,68,41,29.96,29.82,7,4,16,0.00
2014-8-14,69.9,62.2,51.8,51.8,48.2,44.5,88,62,43,30.03,29.96,8,4,17,0.00
2014-8-15,73.9,62.7,51.2,55.5,49.5,44.8,85,64,44,30.05,29.94,7,2,12,0.00
2014-8-16,78.4,69.4,58.2,67.3,59.8,51.3,88,72,59,29.96,29.83,14,6,25,0.00
2014-8-17,78.9,71.7,63.7,66.6,61.8,58.2,92,72,54,30.00,29.89,5,2,17,0.01
2014-8-18,81.1,69.9,61.2,65.2,61.7,58.9,94,76,55,29.98,29.82,5,2,8,0.00
2014-8-19,80.7,71.4,66.1,70.3,65.4,61.1,97,82,66,29.84,29.71,14,5,24,0.77
2014-8-20,76.6,68.8,66.5,69.7,66.6,65.0,97,93,72,29.84,29.75,8,2,10,0.00
2014-8-21,76.7,72.4,71.1,70.3,69.8,69.0,96,92,79,29.96,29.94,7,2,13,0.54
2014-8-22,86.3,74.2,67.2,71.8,67.9,62.3,96,82,60,30.00,29.91,3,1,13,0.00
2014-8-23,82.4,71.9,64.6,68.8,65.6,62.2,94,81,61,30.06,29.98,7,2,10,0.00
2014-8-24,77.5,70.4,65.1,68.9,65.9,63.0,96,86,73,30.09,30.04,8,3,15,0.00
2014-8-25,85.2,75.1,66.5,72.6,68.6,64.3,97,81,63,30.09,30.01,9,3,13,0.00
2014-8-26,86.8,75.5,69.0,75.0,70.5,67.7,98,86,64,30.07,29.96,25,4,29,0.13
2014-8-27,79.8,71.3,64.5,69.8,62.5,57.9,96,75,51,30.11,30.03,4,1,9,0.00
2014-8-28,76.0,66.3,57.6,58.0,54.4,49.8,90,68,44,30.16,30.08,6,2,8,0.00
2014-8-29,77.0,67.6,59.9,60.6,55.8,50.4,87,68,41,30.14,30.00,11,5,14,0.00
2014-8-30,82.5,75.3,68.3,71.2,67.6,60.5,89,77,63,30.02,29.82,18,10,27,0.12
2014-8-31,85.5,75.2,68.9,71.9,69.1,67.0,97,82,57,29.94,29.88,9,4,27,0.03
2014-9-1,82.5,74.4,70.0,73.0,70.8,69.1,99,89,69,29.90,29.69,21,8,29,0.45
2014-9-2,72.4,72.0,71.4,70.7,70.2,69.6,95,94,92,29.82,29.80,8,5,13,0.00
2014-9-3,80.6,74.4,62.2,67.2,63.1,59.5,93,69,51,30.03,29.98,8,3,11,0.00
2014-9-4,85.3,74.8,68.0,73.2,67.2,62.7,90,78,61,30.03,29.93,16,7,21,0.00
2014-9-5,89.9,79.0,69.5,76.1,71.7,68.4,99,80,55,30.01,29.80,19,8,23,0.82
2014-9-6,73.6,67.3,62.3,71.0,59.1,53.4,99,77,50,30.12,29.91,7,2,10,0.54
2014-9-7,78.1,66.0,54.6,58.6,53.9,46.9,93,68,37,30.23,30.12,4,1,6,0.00
2014-9-8,75.7,67.4,58.4,60.4,56.4,47.0,91,69,38,30.20,30.05,9,3,13,0.00
2014-9-9,78.4,69.9,63.6,65.5,61.1,55.8,95,75,49,30.06,29.96,10,4,14,0.00
2014-9-10,74.4,70.6,67.8,72.2,67.3,58.0,98,90,69,29.98,29.54,18,8,25,0.99
2014-9-11,73.4,56.7,51.7,71.1,51.7,47.3,93,84,74,30.21,29.57,13,5,25,0.00
2014-9-12,61.4,54.3,48.2,53.8,50.0,46.8,96,86,71,30.30,30.17,6,1,22,0.06
2014-9-13,59.0,52.3,48.0,51.4,47.3,43.0,96,84,59,30.34,30.09,9,3,14,0.56
2014-9-14,61.9,54.0,44.9,50.0,45.1,39.4,97,74,53,30.36,30.21,9,2,13,0.01
2014-9-15,61.1,57.0,53.5,53.8,50.6,48.5,95,80,68,30.21,30.05,9,4,13,0.08
2014-9-16,66.6,57.1,49.8,52.4,48.8,43.0,96,76,45,30.17,30.07,6,1,12,0.00
2014-9-17,69.5,57.0,46.5,53.4,47.1,43.7,92,72,43,30.08,29.97,5,1,8,0.00
2014-9-18,68.6,57.1,48.2,54.8,50.5,43.9,96,80,58,30.23,30.02,4,1,7,0.00
2014-9-19,66.7,55.1,42.6,53.4,46.7,41.5,97,75,47,30.28,30.04,10,3,14,0.00
2014-9-20,75.8,65.1,56.8,66.1,58.5,50.9,94,80,68,30.04,29.76,18,10,22,0.14
2014-9-21,66.1,60.1,49.6,64.6,56.6,45.0,96,88,65,30.00,29.56,17,7,21,0.27
2014-9-22,63.4,53.2,47.0,50.3,43.7,40.0,85,71,50,30.27,30.00,6,3,15,0.00
2014-9-23,73.3,59.1,48.9,56.9,50.9,46.4,94,76,51,30.36,30.26,6,1,8,0.00
2014-9-24,73.5,62.5,51.5,60.0,54.0,50.2,97,76,51,30.45,30.34,7,2,12,0.00
2014-9-25,75.5,64.6,56.9,57.9,55.5,52.0,96,74,49,30.35,30.26,6,1,11,0.00
2014-9-26,78.0,63.9,52.1,61.9,56.7,51.3,98,80,50,30.32,30.25,6,1,10,0.01
2014-9-27,78.7,65.8,54.2,63.1,57.0,52.4,98,76,43,30.31,30.19,7,1,10,0.01
2014-9-28,77.8,65.6,55.9,61.3,57.9,54.8,98,79,49,30.20,30.05,2,0,3,0.00
2014-9-29,79.0,66.5,56.3,64.4,59.1,55.5,98,79,47,30.05,29.86,6,1,8,0.01
2014-9-30,66.2,54.9,52.1,61.9,51.8,49.1,96,89,78,30.02,29.86,4,2,9,0.30
2014-10-1,68.8,59.3,52.7,59.2,54.2,51.2,98,84,63,30.08,30.01,5,2,8,0.00
2014-10-2,70.1,63.3,57.9,64.1,59.8,57.3,99,89,70,30.05,29.78,9,4,13,0.04
2014-10-3,69.3,63.0,52.1,64.4,58.5,48.9,95,85,75,29.78,29.41,27,10,47,0.19
2014-10-4,52.2,45.2,41.6,49.1,40.7,35.4,94,85,61,29.69,29.57,20,11,27,0.20
2014-10-5,52.8,48.1,43.4,42.8,39.9,35.4,93,74,53,29.76,29.68,20,11,23,0.00
2014-10-6,60.6,52.5,48.3,51.1,46.0,40.8,94,79,58,29.72,29.61,17,9,22,0.13
2014-10-7,59.5,52.8,45.5,53.3,47.9,42.7,93,84,70,29.78,29.66,15,8,22,0.01
2014-10-8,59.1,53.2,48.8,50.2,41.6,32.8,94,67,40,29.99,29.74,20,7,30,0.00
2014-10-9,59.0,50.7,42.9,44.7,39.0,34.9,85,66,41,30.10,29.97,9,3,13,0.00
2014-10-10,58.8,49.2,39.0,44.3,39.2,35.7,93,71,46,30.18,30.10,3,1,9,0.00
2014-10-11,61.8,48.7,38.8,42.0,38.1,33.0,94,70,36,30.27,30.15,3,0,5,0.00
2014-10-12,58.2,49.5,38.7,48.9,41.1,35.2,95,74,52,30.24,30.03,11,4,18,0.00
2014-10-13,68.8,61.2,53.3,64.8,59.0,48.7,99,93,82,30.03,29.81,12,6,18,0.15
2014-10-14,68.7,65.3,58.7,63.9,60.7,57.5,97,85,75,29.81,29.59,14,8,22,0.57
2014-10-15,65.7,59.7,55.9,58.0,55.2,52.1,97,86,66,29.79,29.68,11,4,20,0.00
2014-10-16,62.9,56.4,52.2,56.7,53.7,51.4,98,91,76,29.77,29.68,8,2,14,0.00
2014-10-17,62.1,56.2,50.2,53.5,51.8,46.7,97,86,67,29.68,29.49,18,10,29,0.04
2014-10-18,50.0,45.3,41.3,46.6,41.0,36.2,91,85,77,30.12,29.63,9,4,18,0.00
2014-10-19,51.2,42.9,32.7,40.3,34.7,30.4,92,74,51,30.23,29.99,9,4,12,0.00
2014-10-20,56.1,50.8,46.1,50.9,46.3,39.6,94,85,74,29.99,29.79,10,5,13,0.27
2014-10-21,48.5,46.0,43.9,46.5,42.4,38.1,96,87,80,30.24,29.88,5,2,12,0.03
2014-10-22,52.2,44.7,40.9,42.0,40.4,38.8,92,85,68,30.31,30.23,2,0,9,0.00
2014-10-23,59.0,46.5,36.3,44.2,40.4,35.2,97,81,51,30.30,30.11,4,1,6,0.00
2014-10-24,60.6,50.1,40.4,51.0,45.1,39.4,97,84,65,30.12,29.96,8,2,9,0.01
2014-10-25,67.2,56.9,50.2,53.9,46.0,31.6,94,71,28,29.96,29.71,15,7,22,0.00
2014-10-26,60.6,52.0,45.9,43.2,35.8,32.0,78,55,35,29.95,29.80,9,4,17,0.00
2014-10-27,70.3,55.7,38.0,57.4,45.3,36.3,96,70,48,29.96,29.71,15,5,25,0.00
2014-10-28,68.9,61.1,51.6,59.1,51.5,39.8,95,72,50,29.88,29.67,19,10,24,0.14
2014-10-29,51.6,47.2,44.8,41.4,39.6,37.5,82,75,64,30.09,29.88,13,7,17,0.00
2014-10-30,51.4,45.5,38.2,40.5,37.4,35.2,92,74,56,30.16,30.01,8,3,11,0.00
2014-10-31,46.9,41.2,34.8,40.7,37.6,32.7,93,87,76,30.15,29.89,8,4,15,0.29
2014-11-1,41.7,35.6,29.6,33.0,27.3,24.0,92,72,54,30.40,30.14,7,4,15,0.00
2014-11-2,42.1,31.7,27.9,27.8,24.8,22.3,87,76,48,30.47,30.38,6,1,11,0.00
2014-11-6,41.5,39.4,38.1,38.8,36.2,33.4,91,88,83,30.02,29.95,8,5,17,0.08
2014-11-7,44.5,38.1,33.5,33.3,27.5,24.8,83,66,47,30.14,29.96,9,4,18,0.00
2014-11-8,43.5,39.7,35.6,39.3,35.0,29.8,93,83,72,29.96,29.71,14,9,20,0.04
2014-11-9,43.8,40.6,37.1,35.1,32.8,30.1,83,74,65,29.94,29.81,17,9,21,0.00
2014-11-10,55.6,48.5,41.1,41.1,36.5,33.2,78,64,49,29.97,29.75,16,6,20,0.00
2014-11-11,59.3,49.9,37.6,49.7,40.7,32.3,90,71,60,29.89,29.63,21,11,28,0.00
2014-11-12,37.6,33.5,30.9,32.3,24.8,22.4,81,70,63,30.25,29.89,17,9,29,0.00
2014-11-13,34.4,30.6,25.5,25.8,23.1,17.9,88,74,55,30.22,30.15,10,6,16,0.00
2014-11-14,33.1,28.9,24.8,25.1,22.9,21.2,90,79,63,30.33,30.20,8,6,15,0.00
2014-11-15,32.4,30.5,27.7,24.9,21.6,19.9,88,69,61,30.42,30.26,15,9,19,0.00
2014-11-16,33.6,31.0,29.2,29.3,24.8,20.6,93,78,67,30.26,29.92,12,9,16,0.00
2014-11-17,31.0,26.9,17.9,28.5,22.3,12.4,91,83,65,29.92,29.66,23,11,28,0.00
2014-11-18,22.5,17.9,14.2,14.7,12.4,10.2,88,79,67,30.15,29.81,23,18,31,0.00
2014-11-19,28.6,22.3,15.9,26.3,18.0,10.3,93,84,75,30.15,29.75,19,14,27,0.00
2014-11-20,26.6,22.7,15.8,22.1,18.5,12.3,92,84,69,30.21,29.88,21,12,27,0.00
2014-11-21,27.8,19.7,12.2,17.3,13.1,9.3,89,76,56,30.53,30.21,12,7,17,0.00
2014-11-22,48.0,36.7,22.4,44.7,33.4,14.8,94,88,70,30.38,29.96,16,12,19,0.01
2014-11-23,51.7,47.9,45.0,49.0,45.0,42.0,97,90,84,29.98,29.24,12,7,17,0.70
2014-11-24,56.1,46.9,34.3,54.0,43.7,30.0,98,89,73,29.69,29.05,35,21,50,0.29
2014-11-25,34.5,31.7,30.5,30.5,26.8,23.6,88,82,75,30.24,29.69,25,14,40,0.00
2014-11-26,33.1,30.8,29.7,26.4,24.7,22.8,83,78,72,30.24,30.12,5,2,11,0.00
2014-11-27,32.3,28.5,22.9,26.1,23.4,12.7,87,81,63,30.34,30.13,8,3,18,0.00
2014-11-28,29.1,21.2,17.8,25.1,13.3,9.4,86,71,61,30.39,30.13,11,5,18,0.00
2014-11-29,49.1,33.5,29.1,45.1,29.1,25.2,87,84,81,30.14,29.72,18,9,18,0.00
2014-11-30,52.7,47.3,36.9,49.5,44.6,34.8,96,91,86,30.10,29.72,15,8,19,0.01
2014-12-1,36.8,28.0,18.8,34.6,19.5,10.6,93,71,47,30.69,30.09,9,4,16,0.00
2014-12-2,33.9,27.4,19.1,27.5,22.0,12.2,87,80,74,30.66,30.09,12,6,15,0.00
2014-12-3,37.9,33.0,29.0,30.7,26.3,21.8,92,77,54,30.34,30.03,20,12,27,0.00
2014-12-4,39.7,28.9,23.4,22.7,17.9,13.1,79,64,38,30.50,30.34,4,2,14,0.00
2014-12-5,38.7,35.0,29.1,33.0,29.7,21.2,86,81,73,30.42,30.22,4,1,8,0.00
2014-12-6,40.1,34.8,27.9,33.8,28.3,20.6,89,77,63,30.66,30.22,5,2,10,0.00
2014-12-7,36.3,29.6,22.3,28.2,19.3,10.3,91,67,36,30.75,30.49,9,4,13,0.00
2014-12-8,40.5,36.6,32.0,35.3,28.7,24.8,93,74,54,30.49,30.08,15,8,19,0.05
2014-12-9,37.9,36.5,35.5,36.1,34.5,31.7,96,93,86,30.26,30.08,5,1,12,0.02
2014-12-10,27.7,25.7,23.8,23.4,21.4,19.8,87,84,80,30.31,30.14,7,4,16,0.00
2014-12-11,23.9,22.6,21.6,20.0,18.2,15.7,86,83,78,30.14,30.10,5,4,11,0.00
2014-12-12,34.7,32.4,29.7,31.3,29.5,26.9,93,89,85,30.26,30.21,9,5,14,0.00
2014-12-13,42.0,37.9,32.6,40.8,36.5,30.8,97,95,89,30.22,30.02,12,8,18,0.00
2014-12-14,48.9,45.6,42.1,46.6,43.9,39.9,98,94,90,30.09,30.02,9,3,16,0.00
2014-12-15,47.0,44.4,41.8,46.5,42.8,39.4,98,94,88,30.08,29.84,8,4,16,0.06
2014-12-16,44.5,42.9,37.2,43.7,42.0,35.1,98,96,91,29.89,29.67,14,5,25,0.26
2014-12-17,37.2,31.4,27.6,35.1,26.2,20.8,92,81,75,30.18,29.89,17,10,27,0.00
2014-12-18,32.1,30.4,27.8,29.5,27.7,23.0,94,90,80,30.25,30.18,11,2,26,0.00
2014-12-19,34.4,27.6,22.0,25.8,22.4,19.8,93,81,61,30.38,30.23,9,1,10,0.00
2014-12-20,29.8,27.5,21.2,24.2,22.4,19.5,94,81,74,30.37,30.31,3,0,5,0.00
2014-12-21,34.0,30.4,25.5,26.9,25.0,22.3,91,80,71,30.35,30.23,9,4,15,0.00
2014-12-22,37.6,31.7,27.5,33.6,27.9,24.5,92,86,76,30.23,29.90,9,4,15,0.00
2014-12-23,48.2,41.8,35.4,47.7,40.8,33.4,98,96,90,29.90,29.78,11,4,17,0.07
2014-12-24,46.4,42.4,34.6,46.1,41.9,33.6,99,98,95,29.78,29.17,17,3,23,0.83
2014-12-25,38.0,36.8,33.9,35.6,33.0,30.9,96,86,79,30.15,29.47,18,12,27,0.00
2014-12-26,45.7,39.7,33.5,39.4,36.0,31.2,93,87,75,30.17,30.08,11,7,27,0.00
2014-12-27,47.8,43.6,41.2,45.1,41.5,35.7,97,92,76,30.15,29.92,19,10,23,0.03
2014-12-28,37.5,33.3,27.9,32.0,25.8,22.4,88,74,58,30.23,30.08,9,3,21,0.00
2014-12-29,33.1,28.5,25.8,23.2,18.3,12.1,83,66,49,30.39,30.23,5,1,11,0.00
2014-12-30,24.0,19.8,16.5,14.5,11.0,8.5,81,69,57,30.59,30.46,11,3,18,0.00
2014-12-31,21.3,18.9,17.4,11.2,8.5,5.8,69,64,57,30.30,30.10,22,18,31,0.00
2015-1-1,29.2,24.7,19.4,20.5,15.9,10.5,79,69,59,30.10,29.92,22,16,29,0.00
2015-1-2,33.4,30.0,27.2,24.0,21.4,18.5,81,70,60,30.39,30.09,12,5,24,0.00